Theta_e
343 344 344 349 347 346 347 345 351 354 350 350 349 349 353 351 354 355 350 345 337 330
338 341 345 348 352 350 352 352 350 352 349 349 347 348 353 352 351 348 341 328 321 319
328 334 343 344 348 350 351 352 350 349 349 348 348 348 351 344 342 333 326 318 312 308
327 329 333 341 342 347 350 352 350 348 347 346 346 345 336 334 326 325 316 311 306 303
326 329 331 335 341 346 346 350 349 349 341 338 334 330 323 322 323 314 306 303 301 300
323 328 331 332 339 342 345 349 346 343 329 326 319 321 316 316 310 306 307 300 299 300
321 326 329 332 335 340 343 346 344 341 334 326 319 315 311 310 306 307 305 301 300 301
321 325 328 330 333 339 343 338 327 328 326 318 311 308 307 307 304 305 300 301 302 302
320 323 327 330 333 340 327 321 317 315 312 311 309 303 303 304 303 301 300 299 302 302
319 322 327 329 334 321 316 313 310 308 307 305 304 301 302 303 302 302 301 301 300 300
317 322 327 330 322 315 311 309 307 305 304 304 303 301 301 302 302 303 303 303 301 301
318 323 327 326 314 312 308 307 304 304 303 303 302 301 300 302 303 302 301 300 300 300
322 325 324 317 311 308 305 303 303 300 302 301 299 298 297 301 301 299 298 297 295 294
325 326 314 308 306 304 301 301 298 298 297 299 298 297 295 295 296 294 294 293 292 293
Wind_Speed
9 10 10 13 8 9 12 13 16 18 18 18 18 16 15 13 11 12 9 11 8 8
10 9 13 14 11 10 14 10 16 19 19 19 18 17 15 11 11 9 9 11 11 10
8 10 11 11 13 12 14 15 16 15 18 19 17 16 11 10 11 13 10 10 11 12
10 9 11 11 10 12 12 14 14 15 14 16 13 10 12 13 16 16 17 14 13 13
10 10 10 12 14 11 11 13 14 15 9 9 12 11 13 16 17 18 15 14 15 13
11 11 11 13 13 14 13 14 14 13 17 14 16 12 7 15 18 16 17 12 15 13
13 12 12 12 14 14 15 15 14 15 17 17 16 19 13 16 18 19 16 13 10 14
14 14 14 14 14 13 13 6 10 14 15 17 18 19 14 16 16 19 16 11 7 11
14 15 15 13 12 6 13 14 15 15 17 16 10 30 32 19 16 16 15 13 15 12
15 15 15 12 9 15 14 16 17 16 16 16 20 27 32 26 14 14 15 16 15 14
15 16 14 10 14 15 16 18 17 17 18 18 16 28 28 25 18 13 13 16 14 17
16 16 13 16 17 17 16 14 15 18 21 19 17 26 29 22 18 19 17 17 17 16
15 17 14 16 16 16 18 17 13 17 16 22 18 19 22 19 16 18 15 17 16 19
16 7 17 17 16 17 19 19 17 18 16 17 13 17 18 15 15 14 15 13 12 11
Wind_Direction
254 253 234 230 209 218 205 194 209 207 206 211 205 208 200 202 200 199 179 160 117 98
261 236 262 246 219 209 219 207 207 209 208 208 209 202 198 206 188 156 142 108 95 96
288 270 232 267 255 234 222 215 213 199 207 209 205 197 183 153 149 129 117 99 101 90
294 283 274 223 251 255 233 229 211 212 209 208 185 162 131 137 121 124 113 110 99 89
283 283 270 257 235 240 240 218 214 210 170 145 121 107 122 125 131 124 120 113 102 99
269 266 264 260 247 236 234 226 210 147 114 110 108 91 128 131 122 118 114 119 110 123
267 262 262 259 249 229 236 224 215 170 149 134 128 121 149 135 117 121 111 103 145 121
256 257 255 253 251 235 222 158 122 134 137 133 139 123 153 118 121 121 119 114 115 93
244 248 250 255 249 227 127 124 120 117 128 128 120 133 122 130 124 125 121 128 107 111
241 241 240 242 236 129 129 128 122 122 121 119 121 130 123 130 129 134 132 135 135 113
237 236 230 229 135 134 133 131 127 122 126 127 134 131 131 134 127 131 130 122 103 104
227 229 214 151 142 133 125 127 126 127 127 135 137 140 136 129 129 124 116 100 98 98
227 220 147 140 131 127 120 115 118 114 124 129 133 133 137 131 127 119 107 95 81 70
225 194 121 117 115 117 112 114 111 110 110 121 134 128 120 120 120 115 106 99 96 89